Radiation Dose at Monitoring Post of Fukushima Daini Nuclear Power Station
Date,Time,MP-1(microSv/h),MP-2(microSv/h),MP-3(microSv/h),MP-4(microSv/h),MP-5(microSv/h),MP-6(microSv/h),MP-7(microSv/h),Wind Direction,Wind Velocity(m/s),Rain
2018/04/11,00:00,0.323,0.205,0.331,0.315,0.303,0.163,0.099,south-southwest,11.2,No
2018/04/11,00:10,0.324,0.206,0.331,0.314,0.302,0.165,0.099,south-southwest,10.3,No
2018/04/11,00:20,0.322,0.205,0.330,0.315,0.302,0.164,0.099,south-southwest,9.3,No
2018/04/11,00:30,0.322,0.205,0.332,0.315,0.303,0.164,0.099,south-southwest,9.2,No
2018/04/11,00:40,0.323,0.206,0.331,0.315,0.300,0.164,0.099,south-southwest,9.8,No
2018/04/11,00:50,0.322,0.205,0.331,0.316,0.303,0.164,0.099,south-southwest,9.5,No
2018/04/11,01:00,0.324,0.205,0.332,0.315,0.303,0.165,0.099,south-southwest,9.2,No
2018/04/11,01:10,0.322,0.205,0.331,0.315,0.303,0.165,0.099,south-southwest,10.4,No
2018/04/11,01:20,0.322,0.206,0.332,0.315,0.302,0.165,0.099,south-southwest,10.1,No
2018/04/11,01:30,0.323,0.205,0.331,0.313,0.301,0.164,0.098,south-southwest,9.0,No
2018/04/11,01:40,0.321,0.204,0.330,0.314,0.304,0.164,0.099,south-southwest,9.2,No
2018/04/11,01:50,0.325,0.204,0.332,0.314,0.303,0.165,0.099,south-southwest,10.4,No
2018/04/11,02:00,0.323,0.206,0.331,0.314,0.302,0.164,0.100,south-southwest,9.8,No
2018/04/11,02:10,0.324,0.204,0.331,0.315,0.304,0.165,0.099,south-southwest,12.5,No
2018/04/11,02:20,0.322,0.207,0.331,0.313,0.302,0.164,0.100,south-southwest,11.7,No
2018/04/11,02:30,0.323,0.205,0.330,0.314,0.303,0.165,0.099,south-southwest,14.4,No
2018/04/11,02:40,0.324,0.205,0.332,0.314,0.302,0.165,0.099,south-southwest,14.5,No
2018/04/11,02:50,0.322,0.206,0.330,0.313,0.304,0.163,0.099,south-southwest,13.4,No
2018/04/11,03:00,0.322,0.204,0.331,0.315,0.303,0.164,0.099,south-southwest,14.3,No
2018/04/11,03:10,0.323,0.206,0.333,0.313,0.303,0.164,0.099,south-southwest,15.1,No
2018/04/11,03:20,0.322,0.206,0.331,0.314,0.303,0.164,0.099,south-southwest,13.3,No
2018/04/11,03:30,0.323,0.204,0.332,0.315,0.301,0.163,0.099,south-southwest,12.6,No
2018/04/11,03:40,0.321,0.205,0.331,0.314,0.302,0.165,0.099,south-southwest,12.3,No
2018/04/11,03:50,0.324,0.205,0.333,0.315,0.304,0.165,0.099,south-southwest,11.5,No
2018/04/11,04:00,0.322,0.206,0.332,0.315,0.303,0.164,0.099,south-southwest,10.9,No
2018/04/11,04:10,0.322,0.206,0.331,0.315,0.305,0.164,0.099,south,10.0,No
2018/04/11,04:20,0.323,0.204,0.332,0.314,0.304,0.164,0.100,south,10.3,No
2018/04/11,04:30,0.322,0.205,0.332,0.313,0.302,0.165,0.099,south,9.3,No
2018/04/11,04:40,0.324,0.206,0.332,0.314,0.304,0.164,0.100,south,9.6,No
2018/04/11,04:50,0.323,0.204,0.332,0.314,0.302,0.165,0.099,south,9.0,No
2018/04/11,05:00,0.323,0.206,0.332,0.313,0.304,0.165,0.098,south,10.3,No
2018/04/11,05:10,0.324,0.205,0.332,0.316,0.302,0.164,0.100,south,11.7,No
2018/04/11,05:20,0.322,0.205,0.332,0.314,0.301,0.164,0.099,south,9.2,No
2018/04/11,05:30,0.324,0.205,0.331,0.314,0.303,0.165,0.100,south,8.4,No
2018/04/11,05:40,0.324,0.204,0.333,0.316,0.304,0.164,0.099,south,6.6,No
2018/04/11,05:50,0.321,0.205,0.332,0.314,0.303,0.165,0.099,south-southeast,4.4,No
2018/04/11,06:00,0.323,0.205,0.331,0.316,0.305,0.164,0.099,south-southwest,5.0,No
2018/04/11,06:10,0.322,0.205,0.332,0.314,0.302,0.166,0.100,south-southwest,9.2,No
2018/04/11,06:20,0.323,0.206,0.332,0.314,0.303,0.165,0.099,south-southwest,12.9,No
2018/04/11,06:30,0.323,0.206,0.333,0.315,0.302,0.165,0.099,south-southwest,10.3,No
2018/04/11,06:40,0.323,0.204,0.331,0.315,0.303,0.164,0.098,south-southwest,12.5,No
2018/04/11,06:50,0.323,0.206,0.333,0.315,0.303,0.165,0.099,south-southwest,13.4,No
2018/04/11,07:00,0.322,0.205,0.331,0.316,0.302,0.165,0.100,south-southwest,10.7,No
2018/04/11,07:10,0.324,0.206,0.330,0.314,0.305,0.164,0.098,south-southwest,9.0,No
2018/04/11,07:20,0.322,0.205,0.333,0.317,0.302,0.164,0.100,south-southwest,11.5,No
2018/04/11,07:30,0.324,0.205,0.330,0.313,0.304,0.164,0.099,south-southwest,12.8,No
2018/04/11,07:40,0.322,0.206,0.333,0.316,0.304,0.164,0.099,south-southwest,11.7,No
2018/04/11,07:50,0.323,0.205,0.332,0.314,0.304,0.165,0.098,south-southwest,8.4,No
2018/04/11,08:00,0.323,0.206,0.331,0.315,0.302,0.166,0.098,south-southwest,10.7,No
2018/04/11,08:10,0.323,0.205,0.331,0.314,0.303,0.165,0.099,south-southwest,9.5,No
2018/04/11,08:20,0.322,0.204,0.331,0.314,0.302,0.166,0.098,southwest,9.8,No
2018/04/11,08:30,0.321,0.205,0.330,0.316,0.302,0.164,0.099,south-southwest,11.2,No
2018/04/11,08:40,0.323,0.204,0.331,0.314,0.303,0.165,0.099,south-southwest,11.2,No
2018/04/11,08:50,0.322,0.205,0.332,0.317,0.302,0.163,0.100,south-southwest,12.9,No
2018/04/11,09:00,0.323,0.204,0.331,0.312,0.302,0.165,0.098,south-southwest,13.7,No
2018/04/11,09:10,0.324,0.206,0.332,0.316,0.302,0.164,0.099,south-southwest,13.1,No
2018/04/11,09:20,0.321,0.204,0.330,0.312,0.303,0.164,0.099,south-southwest,14.8,No
2018/04/11,09:30,0.324,0.207,0.333,0.316,0.304,0.163,0.099,south-southwest,12.5,No
2018/04/11,09:40,0.322,0.205,0.330,0.315,0.302,0.165,0.099,south-southwest,12.3,No
2018/04/11,09:50,0.324,0.206,0.332,0.316,0.304,0.164,0.099,south-southwest,12.9,No
2018/04/11,10:00,0.320,0.205,0.330,0.314,0.302,0.165,0.099,south-southwest,15.3,No
2018/04/11,10:10,0.324,0.206,0.332,0.315,0.304,0.164,0.098,south-southwest,15.6,No
2018/04/11,10:20,0.321,0.205,0.332,0.313,0.302,0.164,0.100,south-southwest,13.6,No
2018/04/11,10:30,0.324,0.205,0.332,0.315,0.303,0.164,0.099,south,14.0,No
2018/04/11,10:40,0.322,0.205,0.333,0.315,0.302,0.165,0.099,south,13.9,No
2018/04/11,10:50,0.324,0.205,0.334,0.315,0.304,0.165,0.099,south,13.1,No
2018/04/11,11:00,0.322,0.206,0.329,0.313,0.303,0.165,0.099,south-southwest,12.2,No
2018/04/11,11:10,0.324,0.205,0.333,0.315,0.304,0.164,0.099,south-southwest,11.2,No
2018/04/11,11:20,0.323,0.205,0.331,0.314,0.303,0.164,0.099,south-southwest,11.7,No
2018/04/11,11:30,0.323,0.206,0.333,0.316,0.304,0.164,0.099,south,10.0,No
2018/04/11,11:40,0.324,0.205,0.332,0.314,0.303,0.164,0.100,south-southwest,12.9,No
2018/04/11,11:50,0.322,0.206,0.332,0.315,0.304,0.165,0.099,south-southwest,14.0,No
2018/04/11,12:00,0.323,0.205,0.332,0.313,0.301,0.164,0.099,south-southwest,12.3,Yes
2018/04/11,12:10,0.322,0.204,0.332,0.316,0.304,0.165,0.099,south,13.9,Yes
2018/04/11,12:20,0.324,0.206,0.333,0.314,0.302,0.164,0.099,south-southwest,11.2,Yes
2018/04/11,12:30,0.322,0.206,0.332,0.316,0.305,0.166,0.100,south-southwest,10.0,No
2018/04/11,12:40,0.324,0.205,0.332,0.313,0.302,0.165,0.100,south-southwest,10.1,No
2018/04/11,12:50,0.323,0.206,0.332,0.316,0.304,0.166,0.099,south-southwest,8.4,No
2018/04/11,13:00,0.323,0.206,0.332,0.313,0.301,0.165,0.100,south-southwest,10.9,No
2018/04/11,13:10,0.323,0.205,0.332,0.317,0.303,0.165,0.099,south-southwest,10.3,No
2018/04/11,13:20,0.324,0.207,0.333,0.315,0.302,0.164,0.100,south,10.7,No
2018/04/11,13:30,0.324,0.206,0.330,0.317,0.302,0.164,0.100,south-southwest,10.4,No
2018/04/11,13:40,0.321,0.206,0.333,0.314,0.304,0.165,0.099,south,9.8,No
2018/04/11,13:50,0.322,0.204,0.333,0.311,0.301,0.164,0.099,south-southwest,11.2,No
2018/04/11,14:00,0.324,0.204,0.328,0.316,0.300,0.164,0.099,south-southwest,10.6,No
2018/04/11,14:10,0.322,0.206,0.332,0.315,0.302,0.166,0.099,south-southwest,10.1,No
2018/04/11,14:20,0.324,0.205,0.332,0.315,0.301,0.164,0.099,south-southwest,11.8,No
2018/04/11,14:30,0.324,0.205,0.331,0.315,0.303,0.165,0.100,south-southwest,11.4,No
2018/04/11,14:40,0.321,0.206,0.334,0.313,0.305,0.166,0.100,south,10.6,No
2018/04/11,14:50,0.319,0.204,0.332,0.316,0.300,0.163,0.099,south-southwest,9.8,No
2018/04/11,15:00,0.324,0.206,0.330,0.315,0.302,0.165,0.099,south,10.1,No
2018/04/11,15:10,0.321,0.206,0.334,0.315,0.303,0.165,0.100,south-southwest,9.6,No
2018/04/11,15:20,0.321,0.204,0.331,0.316,0.301,0.164,0.098,south,8.6,No
2018/04/11,15:30,0.325,0.205,0.332,0.312,0.300,0.165,0.099,south-southwest,7.3,No
2018/04/11,15:40,0.322,0.206,0.334,0.317,0.304,0.166,0.099,south-southwest,6.9,No
2018/04/11,15:50,0.319,0.204,0.331,0.316,0.303,0.164,0.099,south-southwest,4.5,No
2018/04/11,16:00,0.320,0.205,0.331,0.314,0.301,0.164,0.099,south-southwest,4.5,No
2018/04/11,16:10,0.324,0.205,0.334,0.317,0.300,0.165,0.099,south,8.1,No
2018/04/11,16:20,0.320,0.204,0.330,0.313,0.299,0.165,0.100,south,7.9,No
2018/04/11,16:30,0.324,0.206,0.334,0.316,0.305,0.164,0.100,south,8.9,No
2018/04/11,16:40,0.323,0.204,0.333,0.316,0.303,0.165,0.099,south,8.9,No
2018/04/11,16:50,0.322,0.206,0.332,0.314,0.305,0.164,0.099,south,9.2,No
2018/04/11,17:00,0.324,0.205,0.333,0.316,0.304,0.165,0.100,south-southwest,8.1,No
2018/04/11,17:10,0.322,0.206,0.332,0.315,0.302,0.164,0.099,south-southwest,8.7,Yes
2018/04/11,17:20,0.323,0.205,0.334,0.316,0.306,0.165,0.099,south-southwest,7.3,Yes
2018/04/11,17:30,0.322,0.205,0.331,0.313,0.302,0.165,0.099,south-southwest,6.6,Yes
2018/04/11,17:40,0.324,0.205,0.333,0.317,0.304,0.164,0.098,south-southwest,6.1,No
2018/04/11,17:50,0.324,0.206,0.333,0.315,0.301,0.165,0.099,south-southwest,7.0,No
2018/04/11,18:00,0.322,0.206,0.333,0.316,0.305,0.165,0.099,south-southwest,5.7,No
2018/04/11,18:10,0.324,0.206,0.332,0.316,0.302,0.164,0.099,southwest,3.1,No
2018/04/11,18:20,0.322,0.205,0.334,0.317,0.305,0.164,0.099,southwest,2.3,No
2018/04/11,18:30,0.324,0.207,0.333,0.316,0.302,0.164,0.100,south-southwest,5.3,Yes
2018/04/11,18:40,0.323,0.205,0.334,0.316,0.304,0.164,0.099,southwest,4.9,Yes
2018/04/11,18:50,0.324,0.207,0.332,0.316,0.304,0.166,0.099,west-southwest,4.9,No
2018/04/11,19:00,0.323,0.206,0.332,0.315,0.304,0.165,0.100,west-southwest,4.4,No
2018/04/11,19:10,0.326,0.206,0.335,0.317,0.303,0.164,0.100,southwest,3.9,No
2018/04/11,19:20,0.323,0.206,0.333,0.316,0.304,0.165,0.100,south-southwest,2.6,No
2018/04/11,19:30,0.324,0.206,0.333,0.316,0.304,0.166,0.100,southwest,4.9,No
2018/04/11,19:40,0.323,0.204,0.333,0.317,0.303,0.165,0.099,south-southwest,4.5,No
2018/04/11,19:50,0.325,0.208,0.333,0.316,0.304,0.166,0.100,southwest,5.6,No
2018/04/11,20:00,0.322,0.205,0.334,0.316,0.303,0.164,0.100,southwest,3.8,No
2018/04/11,20:10,0.325,0.206,0.333,0.315,0.303,0.164,0.099,southwest,3.0,No
2018/04/11,20:20,0.322,0.206,0.333,0.316,0.302,0.165,0.100,west-southwest,2.1,No
2018/04/11,20:30,0.325,0.206,0.333,0.315,0.303,0.165,0.099,west,2.5,No
2018/04/11,20:40,0.323,0.206,0.332,0.318,0.303,0.165,0.099,north,3.4,No
2018/04/11,20:50,0.325,0.206,0.332,0.315,0.304,0.166,0.100,north,1.3,No
2018/04/11,21:00,0.321,0.205,0.334,0.317,0.302,0.165,0.099,northeast,2.5,No
2018/04/11,21:10,0.325,0.205,0.333,0.315,0.304,0.165,0.100,northeast,1.8,No
2018/04/11,21:20,0.322,0.206,0.335,0.317,0.301,0.165,0.100,northeast,1.1,Yes
2018/04/11,21:30,0.325,0.207,0.332,0.316,0.305,0.165,0.101,north-northeast,1.2,Yes
2018/04/11,21:40,0.322,0.207,0.335,0.318,0.303,0.165,0.100,north-northeast,2.1,Yes
2018/04/11,21:50,0.327,0.207,0.334,0.316,0.305,0.168,0.101,northwest,1.5,Yes
2018/04/11,22:00,0.325,0.207,0.335,0.317,0.304,0.167,0.101,west,0.9,Yes
2018/04/11,22:10,0.326,0.207,0.334,0.317,0.305,0.168,0.101,southwest,2.9,Yes
2018/04/11,22:20,0.325,0.208,0.336,0.317,0.303,0.167,0.101,southwest,5.1,Yes
2018/04/11,22:30,0.326,0.208,0.335,0.318,0.305,0.168,0.101,southwest,4.9,Yes
2018/04/11,22:40,0.326,0.208,0.333,0.317,0.304,0.167,0.102,southwest,4.8,Yes
2018/04/11,22:50,0.323,0.208,0.335,0.318,0.302,0.167,0.101,southwest,3.3,No
2018/04/11,23:00,0.326,0.206,0.334,0.316,0.304,0.165,0.100,west-southwest,2.2,Yes
2018/04/11,23:10,0.323,0.206,0.335,0.316,0.302,0.166,0.100,west,1.6,No
2018/04/11,23:20,0.324,0.206,0.332,0.316,0.304,0.165,0.101,west,2.4,Yes
2018/04/11,23:30,0.322,0.206,0.332,0.316,0.303,0.164,0.100,west,3.9,Yes
2018/04/11,23:40,0.324,0.206,0.332,0.316,0.304,0.166,0.099,west-southwest,5.1,Yes
2018/04/11,23:50,0.322,0.206,0.332,0.317,0.302,0.165,0.099,west,6.0,Yes
